Regional Weather Roundup
Issued by NWS

Home | Current Version | Previous Version | Text Only | Print | Product List | Glossary On
Versions: 1 2 3 4 5 6 7 8 9 10 11 12 13 14 15 16 17 18 19 20 21 22 23 24 25 26 27 28 29 30 31 32 33 34 35 36 37 38 39 40 41 42 43 44 45 46 47 48 49 50
000
ASUS44 KFWD 031203
RWRTX
NORTH TEXAS HOURLY WEATHER ROUNDUP
NATIONAL WEATHER SERVICE FORT WORTH TX
700 AM CDT TUE AUG 03 2021

NOTE: "FAIR" INDICATES FEW OR NO CLOUDS BELOW 12,000 FEET WITH NO
SIGNIFICANT WEATHER AND/OR OBSTRUCTIONS TO VISIBILITY.

TXZ118-119-031300-
DALLAS/FORT WORTH METROPLEX

CITY           SKY/WX    TMP DP  RH WIND       PRES   REMARKS
DFW AIRPORT    FAIR      73  71  93 N5        30.00R FOG
6HR MIN TEMP:  73; 6HR MAX TEMP:  79;

DALLAS LOVE    FAIR      74  71  91 NE5       30.01R
6HR MIN TEMP:  73; 6HR MAX TEMP:  78;

FTW MEACHAM    MOCLDY    70  67  90 N6        30.01R FOG
6HR MIN TEMP:  69; 6HR MAX TEMP:  74;

DAL-EXECUTIVE  FAIR      71  69  93 N5        30.01R FOG
6HR MIN TEMP:  71; 6HR MAX TEMP:  76;

FTW-ALLIANCE   FAIR      70  65  84 N5        30.02R
6HR MIN TEMP:  70; 6HR MAX TEMP:  74;

FTW-NAS-JRB    FAIR      74  68  81 NW6       30.02R
6HR MIN TEMP:  73; 6HR MAX TEMP:  78;

FTW-SPINKS     CLEAR     68  66  94 CALM      30.03S FOG
ARLINGTON      FAIR      73  69  87 N5        30.01R FOG
6HR MIN TEMP:  73; 6HR MAX TEMP:  77;

GRAND PRAIRIE  CLEAR     73  73 100 N3        30.03R
ADDISON        CLEAR     75  70  83 NE5       30.02R
MESQUITE       CLEAR     72  72 100 N8        30.01R FOG
LANCASTER      FAIR      71  70  97 N5        30.02R FOG
6HR MIN TEMP:  70; 6HR MAX TEMP:  73;

$$

TXZ091>094-102>105-117-120-121-131>134-031300-
NORTH CENTRAL TEXAS

CITY           SKY/WX    TMP DP  RH WIND       PRES   REMARKS
SHRMAN/DENISON CLEAR     68  66  94 CALM      30.04S
BOWIE          FAIR      65  62  90 N3        30.05S
6HR MIN TEMP:  65; 6HR MAX TEMP:  72;

BRIDGEPORT     FOG       66  66 100 CALM      30.06R VSB<1/4
6HR MIN TEMP:  65; 6HR MAX TEMP:  74;

DECATUR        FAIR      69  63  80 CALM      30.04R
6HR MIN TEMP:  69; 6HR MAX TEMP:  73;

DENTON         MOCLDY    69  66  90 N6        30.02S FOG
6HR MIN TEMP:  67; 6HR MAX TEMP:  74;

MCKINNEY       FAIR      70  68  93 CALM      30.02R FOG
6HR MIN TEMP:  70; 6HR MAX TEMP:  75;

BONHAM         FAIR      68  67  98 CALM      30.02S FOG
6HR MIN TEMP:  67; 6HR MAX TEMP:  70;

GREENVILLE     FAIR      69  69  98 N3        30.01S FOG
6HR MIN TEMP:  68; 6HR MAX TEMP:  73;

ROCKWALL       FAIR      71  71 100 N6        30.02R
6HR MIN TEMP:  71; 6HR MAX TEMP:  74;

TERRELL        FAIR      71  71 100 N7        30.01R FOG
6HR MIN TEMP:  71; 6HR MAX TEMP:  75;

WAXAHACHIE     FAIR      71  71 100 N3        30.02R FOG
6HR MIN TEMP:  71; 6HR MAX TEMP:  73;

CLEBURNE       CLEAR     70  68  94 CALM      30.03R
GRANBURY       FAIR      68  64  85 W6        30.04R
6HR MIN TEMP:  68; 6HR MAX TEMP:  73;

$$

TXZ083>090-098>101-113>116-127>130-139>142-154-155-031300-
WESTERN NORTH TEXAS

CITY           SKY/WX    TMP DP  RH WIND       PRES   REMARKS
WICHITA FALLS  FAIR      64  61  90 NW8       30.06S
6HR MIN TEMP:  64; 6HR MAX TEMP:  69;

WF-KICKAPOO    FAIR      68  60  75 CALM      30.07S
6HR MIN TEMP:  67; 6HR MAX TEMP:  73;

VERNON         FAIR      63  62  95 N6        30.10S
6HR MIN TEMP:  63; 6HR MAX TEMP:  70;

ABILENE        FAIR      62  57  83 CALM      30.10R
6HR MIN TEMP:  60; 6HR MAX TEMP:  69;

ABILENE-DYESS  FAIR      62  55  77 CALM      30.09R
6HR MIN TEMP:  60; 6HR MAX TEMP:  66;

BRECKENRIDGE   FAIR      62  58  86 CALM      30.07R FOG
6HR MIN TEMP:  62; 6HR MAX TEMP:  69;

CISCO          MOCLDY    63  57  82 NW6       30.06S
EASTLAND       FAIR      62  59  90 CALM      30.07R
6HR MIN TEMP:  60; 6HR MAX TEMP:  66;

RANGER         FAIR      64  59  83 NW5       30.07R
6HR MIN TEMP:  63; 6HR MAX TEMP:  69;

MINERAL WELLS  FAIR      68  63  84 NW3       30.03R
6HR MIN TEMP:  67; 6HR MAX TEMP:  72;

STEPHENVILLE   FAIR      67  60  80 NW6       30.07S
6HR MIN TEMP:  67; 6HR MAX TEMP:  73;

COMANCHE       FAIR      66  60  81 NW6       30.06S
6HR MIN TEMP:  66; 6HR MAX TEMP:  72;

COLEMAN        FAIR      63  56  80 MISG      30.09R
6HR MIN TEMP:  62; 6HR MAX TEMP:  69;

BRADY            N/A    N/A N/A N/A MISG        N/A
SAN SABA       FAIR      66  64  92 W6        30.06R
6HR MIN TEMP:  66; 6HR MAX TEMP:  72;

$$

TXZ143>147-156>162-174-175-031300-
CENTRAL TEXAS

CITY           SKY/WX    TMP DP  RH WIND       PRES   REMARKS
WACO           CLOUDY    75  73  93 N6        29.99S
6HR MIN TEMP:  75; 6HR MAX TEMP:  77;

WACO-TSTC      CLOUDY    75  75 100 N6        29.99
WACO-MCGREGOR  FAIR      73  72  96 NW5       30.01R FOG
6HR MIN TEMP:  73; 6HR MAX TEMP:  76;

HILLSBORO      MOCLDY    73  73 100 CALM      30.01R FOG
6HR MIN TEMP:  71; 6HR MAX TEMP:  74;

CORSICANA      MOCLDY    75  73  93 N6        30.00R FOG
6HR MIN TEMP:  75; 6HR MAX TEMP:  76;

MEXIA          CLOUDY    76  75  99 NW6       29.99R
6HR MIN TEMP:  76; 6HR MAX TEMP:  77;

HEARNE         CLOUDY    76  75  95 CALM      29.99R FOG
6HR MIN TEMP:  76; 6HR MAX TEMP:  77;

CAMERON        CLOUDY    76  75  95 NE3       29.98R FOG
6HR MIN TEMP:  76; 6HR MAX TEMP:  77;

TEMPLE         FAIR      74  74 100 NW5       30.01R
6HR MIN TEMP:  74; 6HR MAX TEMP:  75;

KILLEEN        FAIR      69  65  88 NW5       30.00R
6HR MIN TEMP:  69; 6HR MAX TEMP:  77;

KILLEEN-SKYLRK FAIR      72  70  93 N6        30.01S
6HR MIN TEMP:  72; 6HR MAX TEMP:  77;

FORT HOOD      FAIR      71  69  92 NW7       30.02R
6HR MIN TEMP:  71; 6HR MAX TEMP:  77;

GATESVILLE     FAIR      70  66  88 CALM      30.04R
HAMILTON         N/A     68  64  87 NW7       30.05R
6HR MIN TEMP:  68; 6HR MAX TEMP:  73;

$$

TXZ095>097-106>112-122>126-135>138-148>153-164>167-031300-
EAST TEXAS

CITY           SKY/WX    TMP DP  RH WIND       PRES   REMARKS
PARIS          FAIR      68  67  96 NE5       30.02S
6HR MIN TEMP:  68; 6HR MAX TEMP:  71;

SULPHUR SPRNGS FAIR      70  70 100 CALM      30.03S FOG
6HR MIN TEMP:  70; 6HR MAX TEMP:  74;

MOUNT PLEASANT FAIR      69  68  97 N5        30.00S FOG
6HR MIN TEMP:  69; 6HR MAX TEMP:  72;

GILMER         FAIR      70  69  97 CALM      30.00R FOG
6HR MIN TEMP:  70; 6HR MAX TEMP:  72;

MINEOLA        FAIR      70  70 100 CALM      30.00S FOG
TYLER          FAIR      73  71  93 NE5       29.99R FOG
6HR MIN TEMP:  73; 6HR MAX TEMP:  76;

LONGVIEW       FAIR      73  70  90 CALM      29.98R
6HR MIN TEMP:  72; 6HR MAX TEMP:  74;

MARSHALL       FAIR      70  68  94 NE3       30.00S
6HR MIN TEMP:  70; 6HR MAX TEMP:  73;

ATHENS           N/A     73  72  94 CALM      29.99R
PALESTINE      CLOUDY    75  75 100 N7        29.98S FOG
HENDERSON      CLOUDY    73  72  94 N3        30.00R
6HR MIN TEMP:  73; 6HR MAX TEMP:  74;

CENTER         CLOUDY    77  75  94 NE3       29.98R
NACOGDOCHES    CLOUDY    74  74 100 CALM      29.98R FOG
6HR MIN TEMP:  73; 6HR MAX TEMP:  74;

LUFKIN         CLOUDY    74  73  97 N3        29.97R FOG
6HR MIN TEMP:  74; 6HR MAX TEMP:  76;

$$

SUPPLEMENTAL OBSERVATIONS (NWS FORT WORTH AREA)

CITY           SKY/WX    TMP DP  RH WIND       PRES   REMARKS
$$

SUPPLEMENTAL OBSERVATIONS (NWS NORMAN AREA)

CITY           SKY/WX    TMP DP  RH WIND       PRES   REMARKS
GOODLETT         N/A     63  56  80 NW8       30.11S
ODELL            N/A     58  57  96 W5        30.11S
CROWELL          N/A     64  59  82 NW7       30.11S
KNOX CITY        N


USA.gov is the U.S. government's official web portal to all federal, state and local government web resources and services.